Location: Tucson
(32.2217°N, 110.9265°W)
Time: 16:15:24
(UTC-07:00)

Transit 2A Rocket - Pass Details

Date: 13 August 2022
Orbit: 593 x 908 km, 66.7° (Epoch: 26 September)

Event Time Altitude Azimuth Distance (km) Brightness Sun altitude
Rises 03:01:56 0° 347° (NNW) 2,879 8.4 -30.5°
Reaches altitude 10° 03:04:23 10° 358° (N) 2,002 7.6 -30.2°
Maximum altitude 03:08:20 29° 59° (ENE) 1,192 6.5 -29.6°
Drops below altitude 10° 03:12:31 10° 120° (ESE) 2,135 7.5 -28.9°
Sets 03:15:12 0° 131° (SE) 3,106 8.2 -28.5°
